Time,TemperatureF,DewpointF,PressureIn,WindDirection,WindDirectionDegrees,WindSpeedMPH,WindSpeedGustMPH,Humidity,HourlyPrecipIn,Conditions,Clouds,dailyrainin,SolarRadiationWatts/m^2,SoftwareType,DateUTC
2013-09-27 00:02:00,54.1,51.2,30.07,East,92,2.0,2.0,90,0.00,CLR,,0.00,0.0,WeatherDisplay:10.37,2013-09-26 23:02:00,
2013-09-27 00:07:00,54.1,51.2,30.07,East,92,0.0,0.5,90,0.00,CLR,,0.00,0.0,WeatherDisplay:10.37,2013-09-26 23:07:00,
2013-09-27 00:12:00,54.1,51.2,30.07,East,93,2.3,2.3,90,0.00,CLR,,0.00,0.0,WeatherDisplay:10.37,2013-09-26 23:12:00,
2013-09-27 00:17:00,54.0,51.1,30.07,East,92,1.2,1.2,90,0.00,CLR,,0.00,0.0,WeatherDisplay:10.37,2013-09-26 23:17:00,
2013-09-27 00:22:00,54.0,51.4,30.07,East,93,1.2,1.2,91,0.00,CLR,,0.00,0.0,WeatherDisplay:10.37,2013-09-26 23:22:00,
2013-09-27 00:27:00,54.0,51.4,30.07,East,93,3.5,3.5,91,0.00,CLR,,0.00,0.0,WeatherDisplay:10.37,2013-09-26 23:27:00,
2013-09-27 00:32:00,54.0,51.4,30.07,East,92,3.5,3.5,91,0.00,CLR,,0.00,0.0,WeatherDisplay:10.37,2013-09-26 23:32:00,
2013-09-27 00:37:00,54.0,51.4,30.07,East,93,2.3,2.3,91,0.00,CLR,,0.00,0.0,WeatherDisplay:10.37,2013-09-26 23:37:00,
2013-09-27 00:42:00,53.9,51.3,30.07,East,92,2.3,2.3,91,0.00,CLR,,0.00,0.0,WeatherDisplay:10.37,2013-09-26 23:42:00,
2013-09-27 00:47:00,53.9,51.3,30.07,East,93,3.5,3.5,91,0.00,CLR,,0.00,0.0,WeatherDisplay:10.37,2013-09-26 23:47:00,
2013-09-27 00:52:00,53.9,51.3,30.07,East,93,3.5,3.5,91,0.00,CLR,,0.00,0.0,WeatherDisplay:10.37,2013-09-26 23:52:00,
2013-09-27 00:57:00,53.9,51.3,30.07,East,93,2.3,2.3,91,0.00,CLR,,0.00,0.0,WeatherDisplay:10.37,2013-09-26 23:57:00,
2013-09-27 01:02:00,53.8,51.2,30.07,East,93,2.3,2.3,91,0.00,CLR,,0.00,0.0,WeatherDisplay:10.37,2013-09-27 00:02:00,
2013-09-27 01:10:00,53.8,51.2,30.07,East,93,1.2,1.2,91,0.00,CLR,,0.00,0.0,WeatherDisplay:10.37,2013-09-27 00:10:00,
2013-09-27 01:15:00,53.8,51.2,30.07,East,92,2.0,0.0,91,0.00,CLR,,0.00,0.0,WeatherDisplay:10.37,2013-09-27 00:15:00,
2013-09-27 01:20:00,53.7,51.1,30.07,East,93,3.5,3.5,91,0.00,CLR,,0.00,0.0,WeatherDisplay:10.37,2013-09-27 00:20:00,
2013-09-27 01:25:00,53.7,51.1,30.07,East,92,3.5,3.5,91,0.00,CLR,,0.00,0.0,WeatherDisplay:10.37,2013-09-27 00:25:00,
2013-09-27 01:30:00,53.6,51.3,30.07,East,93,3.5,3.5,92,0.00,CLR,,0.00,0.0,WeatherDisplay:10.37,2013-09-27 00:30:00,
2013-09-27 01:35:00,53.5,51.2,30.07,East,93,2.3,2.3,92,0.00,CLR,,0.00,0.0,WeatherDisplay:10.37,2013-09-27 00:35:00,
2013-09-27 01:40:00,53.5,51.2,30.07,East,92,1.2,1.2,92,0.00,CLR,,0.00,0.0,WeatherDisplay:10.37,2013-09-27 00:40:00,
2013-09-27 01:45:00,53.5,51.2,30.07,East,92,3.5,3.5,92,0.00,CLR,,0.00,0.0,WeatherDisplay:10.37,2013-09-27 00:45:00,
2013-09-27 01:50:00,53.4,51.1,30.07,East,93,1.2,1.2,92,0.00,CLR,,0.00,0.0,WeatherDisplay:10.37,2013-09-27 00:50:00,
2013-09-27 01:55:00,53.3,51.0,30.07,East,93,3.5,3.5,92,0.00,CLR,,0.00,0.0,WeatherDisplay:10.37,2013-09-27 00:55:00,
2013-09-27 02:00:00,53.2,50.9,30.06,East,92,3.5,3.5,92,0.00,CLR,,0.00,0.0,WeatherDisplay:10.37,2013-09-27 01:00:00,
2013-09-27 02:05:00,53.2,50.9,30.06,East,92,0.0,0.0,92,0.00,CLR,,0.00,0.0,WeatherDisplay:10.37,2013-09-27 01:05:00,
2013-09-27 02:10:00,53.1,50.8,30.06,East,93,1.2,1.2,92,0.00,CLR,,0.00,0.0,WeatherDisplay:10.37,2013-09-27 01:10:00,
2013-09-27 02:16:00,53.0,50.7,30.06,East,92,0.0,0.0,92,0.00,CLR,,0.00,0.0,WeatherDisplay:10.37,2013-09-27 01:16:00,
2013-09-27 02:21:00,52.9,50.6,30.06,East,93,0.0,0.0,92,0.00,CLR,,0.00,0.0,WeatherDisplay:10.37,2013-09-27 01:21:00,
2013-09-27 02:26:00,52.8,50.5,30.06,East,92,1.2,1.2,92,0.00,CLR,,0.00,0.0,WeatherDisplay:10.37,2013-09-27 01:26:00,
2013-09-27 02:31:00,52.6,50.3,30.06,East,92,1.2,0.0,92,0.00,CLR,,0.00,0.0,WeatherDisplay:10.37,2013-09-27 01:31:00,
2013-09-27 02:36:00,52.5,50.2,30.06,East,93,0.0,0.0,92,0.00,CLR,,0.00,0.0,WeatherDisplay:10.37,2013-09-27 01:36:00,
2013-09-27 02:41:00,52.5,50.2,30.06,East,93,0.0,0.0,92,0.00,CLR,,0.00,0.0,WeatherDisplay:10.37,2013-09-27 01:41:00,
2013-09-27 02:46:00,52.4,50.1,30.06,East,93,0.0,0.0,92,0.00,CLR,,0.00,0.0,WeatherDisplay:10.37,2013-09-27 01:46:00,
2013-09-27 02:51:00,52.3,50.0,30.06,East,93,0.0,0.0,92,0.00,CLR,,0.00,0.0,WeatherDisplay:10.37,2013-09-27 01:51:00,
2013-09-27 02:56:00,52.2,49.9,30.06,East,93,0.0,0.0,92,0.00,CLR,,0.00,0.0,WeatherDisplay:10.37,2013-09-27 01:56:00,
2013-09-27 03:01:00,52.0,49.7,30.06,East,93,0.0,0.0,92,0.00,CLR,,0.00,0.0,WeatherDisplay:10.37,2013-09-27 02:01:00,
2013-09-27 03:06:00,51.9,49.6,30.06,East,92,0.0,0.0,92,0.00,CLR,,0.00,0.0,WeatherDisplay:10.37,2013-09-27 02:06:00,
2013-09-27 03:11:00,51.8,49.5,30.06,East,93,0.0,0.0,92,0.00,CLR,,0.00,0.0,WeatherDisplay:10.37,2013-09-27 02:11:00,
2013-09-27 03:16:00,51.7,49.5,30.06,East,93,0.0,0.0,92,0.00,CLR,,0.00,0.0,WeatherDisplay:10.37,2013-09-27 02:16:00,
2013-09-27 03:21:00,51.6,49.4,30.06,East,92,0.0,0.0,92,0.00,CLR,,0.00,0.0,WeatherDisplay:10.37,2013-09-27 02:21:00,
2013-09-27 03:26:00,51.7,49.5,30.06,East,93,0.0,0.0,92,0.00,CLR,,0.00,0.0,WeatherDisplay:10.37,2013-09-27 02:26:00,
2013-09-27 03:31:00,51.7,49.5,30.06,East,93,0.0,0.0,92,0.00,CLR,,0.00,0.0,WeatherDisplay:10.37,2013-09-27 02:31:00,
2013-09-27 03:36:00,51.7,49.5,30.06,East,92,0.0,0.0,92,0.00,CLR,,0.00,0.0,WeatherDisplay:10.37,2013-09-27 02:36:00,
2013-09-27 03:41:00,51.8,49.8,30.06,East,93,0.0,0.0,93,0.00,CLR,,0.00,0.0,WeatherDisplay:10.37,2013-09-27 02:41:00,
2013-09-27 03:46:00,51.9,49.9,30.05,East,93,0.0,0.0,93,0.00,CLR,,0.00,0.0,WeatherDisplay:10.37,2013-09-27 02:46:00,
2013-09-27 03:51:00,51.9,49.9,30.05,East,93,0.0,0.0,93,0.00,CLR,,0.00,0.0,WeatherDisplay:10.37,2013-09-27 02:51:00,
2013-09-27 03:56:00,52.0,50.0,30.05,East,93,0.0,0.0,93,0.00,CLR,,0.00,0.0,WeatherDisplay:10.37,2013-09-27 02:56:00,
2013-09-27 04:01:00,52.1,50.1,30.05,East,93,0.0,0.0,93,0.00,CLR,,0.00,0.0,WeatherDisplay:10.37,2013-09-27 03:01:00,
2013-09-27 04:06:00,52.1,50.1,30.05,East,92,0.0,0.0,93,0.00,CLR,,0.00,0.0,WeatherDisplay:10.37,2013-09-27 03:06:00,
2013-09-27 04:11:00,52.2,50.2,30.05,East,93,0.0,0.0,93,0.00,CLR,,0.00,0.0,WeatherDisplay:10.37,2013-09-27 03:11:00,
2013-09-27 04:16:00,52.1,50.1,30.05,East,92,0.0,0.0,93,0.00,CLR,,0.00,0.0,WeatherDisplay:10.37,2013-09-27 03:16:00,
2013-09-27 04:21:00,52.2,50.2,30.05,East,93,0.0,0.0,93,0.00,CLR,,0.00,0.0,WeatherDisplay:10.37,2013-09-27 03:21:00,
2013-09-27 04:26:00,52.2,50.2,30.05,East,93,0.0,0.0,93,0.00,CLR,,0.00,0.0,WeatherDisplay:10.37,2013-09-27 03:26:00,
2013-09-27 04:31:00,52.2,50.2,30.05,East,92,0.0,0.0,93,0.00,CLR,,0.00,0.0,WeatherDisplay:10.37,2013-09-27 03:31:00,
2013-09-27 04:36:00,52.1,50.1,30.04,East,92,0.0,0.0,93,0.00,CLR,,0.00,0.0,WeatherDisplay:10.37,2013-09-27 03:36:00,
2013-09-27 04:41:00,51.9,49.9,30.04,East,93,0.0,0.0,93,0.00,CLR,,0.00,0.0,WeatherDisplay:10.37,2013-09-27 03:41:00,
2013-09-27 04:46:00,51.8,49.8,30.04,East,93,0.0,0.0,93,0.00,CLR,,0.00,0.0,WeatherDisplay:10.37,2013-09-27 03:46:00,
2013-09-27 04:51:00,51.7,49.7,30.04,East,93,0.0,0.0,93,0.00,CLR,,0.00,0.0,WeatherDisplay:10.37,2013-09-27 03:51:00,
2013-09-27 04:56:00,51.5,49.5,30.04,East,93,0.0,0.0,93,0.00,CLR,,0.00,0.0,WeatherDisplay:10.37,2013-09-27 03:56:00,
2013-09-27 05:01:00,51.4,49.4,30.04,East,92,0.0,0.0,93,0.00,CLR,,0.00,0.0,WeatherDisplay:10.37,2013-09-27 04:01:00,
2013-09-27 05:02:00,51.3,49.3,30.04,East,93,0.0,0.0,93,0.00,CLR,,0.00,0.0,WeatherDisplay:10.37,2013-09-27 04:02:00,
2013-09-27 05:07:00,51.1,49.1,30.04,East,93,0.0,0.0,93,0.00,CLR,,0.00,0.0,WeatherDisplay:10.37,2013-09-27 04:07:00,
2013-09-27 05:12:00,50.9,48.9,30.04,East,93,0.0,0.0,93,0.00,CLR,,0.00,0.0,WeatherDisplay:10.37,2013-09-27 04:12:00,
2013-09-27 05:17:00,50.8,48.8,30.04,East,93,0.0,0.0,93,0.00,CLR,,0.00,0.0,WeatherDisplay:10.37,2013-09-27 04:17:00,
2013-09-27 05:22:00,50.6,48.7,30.04,East,92,0.0,0.0,93,0.00,CLR,,0.00,0.0,WeatherDisplay:10.37,2013-09-27 04:22:00,
2013-09-27 05:27:00,50.4,48.5,30.04,East,93,0.0,0.0,93,0.00,CLR,,0.00,0.0,WeatherDisplay:10.37,2013-09-27 04:27:00,
2013-09-27 05:32:00,50.3,48.4,30.04,East,93,0.0,0.0,93,0.00,CLR,,0.00,0.0,WeatherDisplay:10.37,2013-09-27 04:32:00,
2013-09-27 05:37:00,50.1,48.2,30.04,East,93,0.0,0.0,93,0.00,CLR,,0.00,0.0,WeatherDisplay:10.37,2013-09-27 04:37:00,
2013-09-27 05:42:00,50.0,48.1,30.04,East,93,0.0,0.0,93,0.00,CLR,,0.00,0.0,WeatherDisplay:10.37,2013-09-27 04:42:00,
2013-09-27 05:47:00,49.8,47.9,30.05,East,92,0.0,0.0,93,0.00,CLR,,0.00,0.0,WeatherDisplay:10.37,2013-09-27 04:47:00,
2013-09-27 05:52:00,49.7,47.8,30.05,East,93,0.0,0.0,93,0.00,CLR,,0.00,0.0,WeatherDisplay:10.37,2013-09-27 04:52:00,
2013-09-27 05:57:00,49.6,47.7,30.04,East,93,0.0,0.0,93,0.00,CLR,,0.00,0.0,WeatherDisplay:10.37,2013-09-27 04:57:00,
2013-09-27 06:02:00,49.4,47.5,30.04,East,93,0.0,0.0,93,0.00,CLR,,0.00,0.0,WeatherDisplay:10.37,2013-09-27 05:02:00,
2013-09-27 06:07:00,49.3,47.4,30.04,East,93,0.0,0.0,93,0.00,CLR,,0.00,0.0,WeatherDisplay:10.37,2013-09-27 05:07:00,
2013-09-27 06:12:00,49.2,47.3,30.04,East,93,0.0,0.0,93,0.00,CLR,,0.00,0.0,WeatherDisplay:10.37,2013-09-27 05:12:00,
2013-09-27 06:17:00,49.2,47.3,30.04,East,93,0.0,0.0,93,0.00,CLR,,0.00,0.0,WeatherDisplay:10.37,2013-09-27 05:17:00,
2013-09-27 06:22:00,49.1,47.2,30.04,East,93,0.0,0.0,93,0.00,CLR,,0.00,0.0,WeatherDisplay:10.37,2013-09-27 05:22:00,
2013-09-27 06:27:00,49.0,47.1,30.04,East,93,0.0,0.0,93,0.00,OVC,,0.00,0.0,WeatherDisplay:10.37,2013-09-27 05:27:00,
2013-09-27 06:32:00,48.9,47.0,30.04,East,93,0.0,0.0,93,0.00,OVC,,0.00,0.0,WeatherDisplay:10.37,2013-09-27 05:32:00,
2013-09-27 06:37:00,48.8,46.9,30.03,East,93,0.0,0.0,93,0.00,OVC,,0.00,0.0,WeatherDisplay:10.37,2013-09-27 05:37:00,
2013-09-27 06:42:00,48.7,46.8,30.03,East,93,0.0,0.0,93,0.00,OVC,,0.00,0.0,WeatherDisplay:10.37,2013-09-27 05:42:00,
2013-09-27 06:47:00,48.7,46.8,30.03,East,93,1.2,0.0,93,0.00,OVC,,0.00,5.0,WeatherDisplay:10.37,2013-09-27 05:47:00,
2013-09-27 06:52:00,48.7,46.8,30.03,East,93,0.0,0.1,93,0.00,OVC,,0.00,5.0,WeatherDisplay:10.37,2013-09-27 05:52:00,
2013-09-27 06:57:00,48.7,46.8,30.03,East,93,0.0,0.0,93,0.00,OVC,,0.00,0.0,WeatherDisplay:10.37,2013-09-27 05:57:00,
2013-09-27 07:02:00,48.8,46.9,30.04,East,93,1.2,0.0,93,0.00,OVC,,0.00,5.0,WeatherDisplay:10.37,2013-09-27 06:02:00,
2013-09-27 07:07:00,48.8,47.2,30.04,East,92,0.0,0.0,94,0.00,BKN,,0.00,7.0,WeatherDisplay:10.37,2013-09-27 06:07:00,
2013-09-27 07:12:00,48.7,46.8,30.04,East,93,0.0,0.0,93,0.00,BKN,,0.00,11.0,WeatherDisplay:10.37,2013-09-27 06:12:00,
2013-09-27 07:17:00,48.6,47.0,30.04,East,92,0.0,0.0,94,0.00,BKN,,0.00,14.0,WeatherDisplay:10.37,2013-09-27 06:17:00,
2013-09-27 07:22:00,48.6,47.0,30.04,East,93,0.0,0.0,94,0.00,BKN,,0.00,21.0,WeatherDisplay:10.37,2013-09-27 06:22:00,
2013-09-27 07:27:00,48.5,46.9,30.04,East,93,0.0,0.0,94,0.00,BKN,,0.00,28.0,WeatherDisplay:10.37,2013-09-27 06:27:00,
2013-09-27 07:32:00,48.5,46.9,30.04,East,93,0.0,0.0,94,0.00,BKN,,0.00,37.0,WeatherDisplay:10.37,2013-09-27 06:32:00,
2013-09-27 07:37:00,48.7,47.1,30.04,East,93,0.0,0.0,94,0.00,BKN,,0.00,49.0,WeatherDisplay:10.37,2013-09-27 06:37:00,
2013-09-27 07:42:00,48.7,47.1,30.05,East,92,0.0,0.0,94,0.00,BKN,,0.00,58.0,WeatherDisplay:10.37,2013-09-27 06:42:00,
2013-09-27 07:47:00,48.8,47.2,30.05,East,92,0.0,0.0,94,0.00,BKN,,0.00,58.0,WeatherDisplay:10.37,2013-09-27 06:47:00,
2013-09-27 07:52:00,48.9,47.2,30.05,NNE,32,0.0,0.1,94,0.00,BKN,,0.00,67.0,WeatherDisplay:10.37,2013-09-27 06:52:00,
2013-09-27 07:57:00,49.1,47.4,30.05,NNE,32,0.0,0.0,94,0.00,BKN,,0.00,84.0,WeatherDisplay:10.37,2013-09-27 06:57:00,
2013-09-27 08:02:00,49.2,47.5,30.04,NNE,32,0.0,0.0,94,0.00,BKN,,0.00,93.0,WeatherDisplay:10.37,2013-09-27 07:02:00,
2013-09-27 08:07:00,49.6,48.2,30.04,NNE,32,2.3,2.3,95,0.00,BKN,,0.00,84.0,WeatherDisplay:10.37,2013-09-27 07:07:00,
2013-09-27 08:12:00,50.0,48.6,30.05,NNE,32,1.2,0.0,95,0.00,BKN,,0.00,100.0,WeatherDisplay:10.37,2013-09-27 07:12:00,
2013-09-27 08:17:00,50.3,48.9,30.04,NNE,32,1.2,1.2,95,0.00,BKN,,0.00,113.0,WeatherDisplay:10.37,2013-09-27 07:17:00,
2013-09-27 08:22:00,50.7,49.3,30.04,NNE,32,3.5,3.5,95,0.00,BKN,,0.00,139.0,WeatherDisplay:10.37,2013-09-27 07:22:00,
2013-09-27 08:27:00,51.3,49.9,30.04,NNE,33,3.5,3.5,95,0.00,BKN,,0.00,153.0,WeatherDisplay:10.37,2013-09-27 07:27:00,
2013-09-27 08:32:00,51.8,50.7,30.04,NE,34,3.5,3.5,96,0.00,BKN,,0.00,146.0,WeatherDisplay:10.37,2013-09-27 07:32:00,
2013-09-27 08:37:00,52.1,50.7,30.04,ENE,72,6.0,6.0,95,0.00,BKN,,0.00,146.0,WeatherDisplay:10.37,2013-09-27 07:37:00,
2013-09-27 08:42:00,52.4,51.0,30.04,ENE,78,5.8,5.8,95,0.00,BKN,,0.00,155.0,WeatherDisplay:10.37,2013-09-27 07:42:00,
2013-09-27 08:47:00,52.8,51.4,30.03,East,88,5.8,5.8,95,0.00,BKN,,0.00,162.0,WeatherDisplay:10.37,2013-09-27 07:47:00,
2013-09-27 08:49:00,52.9,51.5,30.03,East,81,6.9,6.9,95,0.00,BKN,,0.00,165.0,WeatherDisplay:10.37,2013-09-27 07:49:00,
2013-09-27 08:54:00,53.3,51.6,30.03,ESE,121,4.6,4.6,94,0.00,BKN,,0.00,171.0,WeatherDisplay:10.37,2013-09-27 07:54:00,
2013-09-27 08:59:00,53.6,51.6,30.03,East,87,9.2,9.2,93,0.00,BKN,,0.00,183.0,WeatherDisplay:10.37,2013-09-27 07:59:00,
2013-09-27 09:04:00,53.9,51.9,30.03,ESE,110,10.4,10.4,93,0.00,BKN,,0.00,199.0,WeatherDisplay:10.37,2013-09-27 08:04:00,
2013-09-27 09:09:00,54.2,51.9,30.04,East,88,10.4,10.4,92,0.00,BKN,,0.00,204.0,WeatherDisplay:10.37,2013-09-27 08:09:00,
2013-09-27 09:14:00,54.5,51.9,30.03,East,79,10.4,10.4,91,0.00,SCT,,0.00,186.0,WeatherDisplay:10.37,2013-09-27 08:14:00,
2013-09-27 09:19:00,54.8,51.9,30.03,East,92,12.7,12.7,90,0.00,BKN,,0.00,211.0,WeatherDisplay:10.37,2013-09-27 08:19:00,
2013-09-27 09:24:00,55.0,51.8,30.03,ESE,103,6.0,6.0,89,0.00,BKN,,0.00,221.0,WeatherDisplay:10.37,2013-09-27 08:24:00,
2013-09-27 09:29:00,55.3,51.8,30.04,East,96,5.8,5.8,88,0.00,BKN,,0.00,181.0,WeatherDisplay:10.37,2013-09-27 08:29:00,
2013-09-27 09:34:00,55.5,52.0,30.04,East,84,7.0,7.0,88,0.00,BKN,,0.00,250.0,WeatherDisplay:10.37,2013-09-27 08:34:00,
2013-09-27 09:39:00,55.8,52.0,30.04,East,91,9.2,9.2,87,0.00,SCT,,0.00,244.0,WeatherDisplay:10.37,2013-09-27 08:39:00,
2013-09-27 09:44:00,56.0,52.2,30.03,ENE,75,12.7,12.7,87,0.00,SCT,,0.00,255.0,WeatherDisplay:10.37,2013-09-27 08:44:00,
2013-09-27 09:49:00,56.2,52.1,30.03,East,94,15.0,15.0,86,0.00,SCT,,0.00,276.0,WeatherDisplay:10.37,2013-09-27 08:49:00,
2013-09-27 09:53:00,56.6,52.5,30.04,ESE,117,10.4,10.4,86,0.00,SCT,,0.00,274.0,WeatherDisplay:10.37,2013-09-27 08:53:00,
2013-09-27 09:59:00,56.7,51.9,30.04,East,86,11.5,11.5,84,0.00,SCT,,0.00,216.0,WeatherDisplay:10.37,2013-09-27 08:59:00,
2013-09-27 10:03:00,56.8,52.0,30.04,ENE,70,4.6,4.6,84,0.00,BKN,,0.00,223.0,WeatherDisplay:10.37,2013-09-27 09:03:00,
2013-09-27 10:09:00,57.0,52.2,30.04,SE,138,10.4,10.4,84,0.00,BKN,,0.00,253.0,WeatherDisplay:10.37,2013-09-27 09:09:00,
2013-09-27 10:13:00,56.9,51.8,30.04,East,96,8.1,8.1,83,0.00,BKN,,0.00,246.0,WeatherDisplay:10.37,2013-09-27 09:13:00,
2013-09-27 10:18:00,57.0,51.9,30.03,East,89,4.6,4.6,83,0.00,BKN,,0.00,274.0,WeatherDisplay:10.37,2013-09-27 09:18:00,
2013-09-27 10:23:00,57.1,52.0,30.03,ENE,67,5.0,5.0,83,0.00,SCT,,0.00,267.0,WeatherDisplay:10.37,2013-09-27 09:23:00,
2013-09-27 10:28:00,57.3,51.9,30.03,East,91,9.2,9.2,82,0.00,SCT,,0.00,283.0,WeatherDisplay:10.37,2013-09-27 09:28:00,
2013-09-27 10:33:00,57.4,51.6,30.03,ESE,122,10.4,10.4,81,0.00,SCT,,0.00,320.0,WeatherDisplay:10.37,2013-09-27 09:33:00,
2013-09-27 10:38:00,57.6,51.8,30.04,ESE,121,9.2,9.2,81,0.00,SCT,,0.00,309.0,WeatherDisplay:10.37,2013-09-27 09:38:00,
2013-09-27 10:44:00,57.9,52.4,30.04,ESE,115,5.8,5.8,82,0.00,SCT,,0.00,276.0,WeatherDisplay:10.37,2013-09-27 09:44:00,
2013-09-27 10:49:00,58.5,52.7,30.04,East,83,4.0,4.0,81,0.00,SCT,,0.00,288.0,WeatherDisplay:10.37,2013-09-27 09:49:00,
2013-09-27 10:54:00,58.9,52.4,30.04,ENE,63,9.0,9.0,79,0.00,SCT,,0.00,374.0,WeatherDisplay:10.37,2013-09-27 09:54:00,
2013-09-27 10:59:00,58.8,52.3,30.04,ENE,67,9.2,9.2,79,0.00,SCT,,0.00,304.0,WeatherDisplay:10.37,2013-09-27 09:59:00,
2013-09-27 11:04:00,59.0,52.1,30.04,East,84,4.6,4.6,78,0.00,SCT,,0.00,246.0,WeatherDisplay:10.37,2013-09-27 10:04:00,
2013-09-27 11:09:00,59.0,52.1,30.04,ESE,102,3.5,3.5,78,0.00,BKN,,0.00,276.0,WeatherDisplay:10.37,2013-09-27 10:09:00,
2013-09-27 11:14:00,59.1,52.2,30.04,East,95,6.9,6.9,78,0.00,BKN,,0.00,276.0,WeatherDisplay:10.37,2013-09-27 10:14:00,
2013-09-27 11:19:00,59.2,52.7,30.03,East,85,6.9,6.9,79,0.00,BKN,,0.00,290.0,WeatherDisplay:10.37,2013-09-27 10:19:00,
2013-09-27 11:24:00,59.2,52.3,30.03,ENE,72,6.9,6.9,78,0.00,BKN,,0.00,288.0,WeatherDisplay:10.37,2013-09-27 10:24:00,
2013-09-27 11:29:00,59.3,52.4,30.03,ENE,72,5.8,5.8,78,0.00,BKN,,0.00,304.0,WeatherDisplay:10.37,2013-09-27 10:29:00,
2013-09-27 11:34:00,59.3,52.1,30.03,ESE,105,10.4,10.4,77,0.00,SCT,,0.00,316.0,WeatherDisplay:10.37,2013-09-27 10:34:00,
2013-09-27 11:39:00,59.3,52.1,30.03,East,86,9.2,9.2,77,0.00,SCT,,0.00,334.0,WeatherDisplay:10.37,2013-09-27 10:39:00,
2013-09-27 11:44:00,59.3,52.1,30.03,East,97,6.0,6.0,77,0.00,SCT,,0.00,302.0,WeatherDisplay:10.37,2013-09-27 10:44:00,
2013-09-27 11:49:00,59.3,52.1,30.03,East,82,11.5,11.5,77,0.00,SCT,,0.00,315.0,WeatherDisplay:10.37,2013-09-27 10:49:00,
2013-09-27 11:54:00,59.5,52.6,30.03,East,86,3.5,3.5,78,0.00,SCT,,0.00,371.0,WeatherDisplay:10.37,2013-09-27 10:54:00,
2013-09-27 11:59:00,60.1,52.9,30.02,East,82,9.0,9.0,77,0.00,SCT,,0.00,462.0,WeatherDisplay:10.37,2013-09-27 10:59:00,
2013-09-27 12:04:00,60.8,53.2,30.02,East,87,9.2,9.2,76,0.00,FEW,,0.00,555.0,WeatherDisplay:10.37,2013-09-27 11:04:00,
2013-09-27 12:09:00,61.1,52.7,30.02,ENE,71,9.2,9.2,74,0.00,CLR,,0.00,462.0,WeatherDisplay:10.37,2013-09-27 11:09:00,
2013-09-27 12:14:00,61.0,51.9,30.02,ESE,111,9.2,9.2,72,0.00,FEW,,0.00,292.0,WeatherDisplay:10.37,2013-09-27 11:14:00,
2013-09-27 12:19:00,61.1,52.7,30.02,East,82,2.3,2.3,74,0.00,SCT,,0.00,366.0,WeatherDisplay:10.37,2013-09-27 11:19:00,
2013-09-27 12:24:00,61.1,53.1,30.02,ENE,72,5.8,5.8,75,0.00,SCT,,0.00,410.0,WeatherDisplay:10.37,2013-09-27 11:24:00,
2013-09-27 12:29:00,61.3,52.9,30.02,East,84,10.4,10.4,74,0.00,SCT,,0.00,434.0,WeatherDisplay:10.37,2013-09-27 11:29:00,
2013-09-27 12:34:00,61.5,52.8,30.02,East,81,4.6,4.6,73,0.00,FEW,,0.00,499.0,WeatherDisplay:10.37,2013-09-27 11:34:00,
2013-09-27 12:39:00,61.8,52.3,30.02,East,82,10.4,10.4,71,0.00,FEW,,0.00,621.0,WeatherDisplay:10.37,2013-09-27 11:39:00,
2013-09-27 12:44:00,62.0,52.9,30.02,ENE,71,5.0,5.0,72,0.00,CLR,,0.00,489.0,WeatherDisplay:10.37,2013-09-27 11:44:00,
2013-09-27 12:49:00,62.6,52.7,30.02,ESE,109,5.8,5.8,70,0.00,CLR,,0.00,626.0,WeatherDisplay:10.37,2013-09-27 11:49:00,
2013-09-27 12:54:00,62.5,52.2,30.02,ENE,61,10.4,10.4,69,0.00,CLR,,0.00,555.0,WeatherDisplay:10.37,2013-09-27 11:54:00,
2013-09-27 12:59:00,62.0,51.7,30.02,East,87,9.0,9.0,69,0.00,CLR,,0.00,548.0,WeatherDisplay:10.37,2013-09-27 11:59:00,
2013-09-27 13:04:00,62.1,51.8,30.01,East,98,11.0,11.0,69,0.00,CLR,,0.00,601.0,WeatherDisplay:10.37,2013-09-27 12:04:00,
2013-09-27 13:09:00,62.7,52.4,30.01,ENE,67,10.4,10.4,69,0.00,CLR,,0.00,594.0,WeatherDisplay:10.37,2013-09-27 12:09:00,
2013-09-27 13:14:00,63.4,52.2,30.01,ESE,107,9.0,9.0,67,0.00,CLR,,0.00,596.0,WeatherDisplay:10.37,2013-09-27 12:14:00,
2013-09-27 13:19:00,63.1,52.0,30.01,East,94,11.5,11.5,67,0.00,CLR,,0.00,374.0,WeatherDisplay:10.37,2013-09-27 12:19:00,
2013-09-27 13:24:00,62.9,52.2,30.01,East,88,8.1,8.1,68,0.00,FEW,,0.00,410.0,WeatherDisplay:10.37,2013-09-27 12:24:00,
2013-09-27 13:29:00,63.0,52.7,30.00,East,95,3.5,3.5,69,0.00,SCT,,0.00,357.0,WeatherDisplay:10.37,2013-09-27 12:29:00,
2013-09-27 13:34:00,63.0,52.3,30.00,ESE,103,6.9,6.9,68,0.00,SCT,,0.00,352.0,WeatherDisplay:10.37,2013-09-27 12:34:00,
2013-09-27 13:39:00,62.9,52.2,30.00,NE,41,3.5,3.5,68,0.00,SCT,,0.00,230.0,WeatherDisplay:10.37,2013-09-27 12:39:00,
2013-09-27 13:44:00,62.8,52.1,30.00,East,87,6.0,6.0,68,0.00,BKN,,0.00,171.0,WeatherDisplay:10.37,2013-09-27 12:44:00,
2013-09-27 13:49:00,62.7,52.0,30.00,ENE,68,4.6,4.6,68,0.00,BKN,,0.00,188.0,WeatherDisplay:10.37,2013-09-27 12:49:00,
2013-09-27 13:54:00,62.4,51.7,30.00,East,82,4.6,4.6,68,0.00,BKN,,0.00,181.0,WeatherDisplay:10.37,2013-09-27 12:54:00,
2013-09-27 14:00:00,62.2,51.9,30.00,East,84,3.5,3.5,69,0.00,BKN,,0.00,195.0,WeatherDisplay:10.37,2013-09-27 13:00:00,
2013-09-27 14:05:00,62.4,52.5,30.00,East,84,4.0,4.0,70,0.00,BKN,,0.00,343.0,WeatherDisplay:10.37,2013-09-27 13:05:00,
2013-09-27 14:10:00,62.3,51.6,30.00,East,86,5.0,5.0,68,0.00,SCT,,0.00,251.0,WeatherDisplay:10.37,2013-09-27 13:10:00,
2013-09-27 14:15:00,62.3,51.6,30.00,East,79,4.6,4.6,68,0.00,SCT,,0.00,258.0,WeatherDisplay:10.37,2013-09-27 13:15:00,
2013-09-27 14:20:00,62.5,52.2,29.99,ENE,78,4.0,4.0,69,0.00,SCT,,0.00,260.0,WeatherDisplay:10.37,2013-09-27 13:20:00,
2013-09-27 14:25:00,62.5,51.4,29.99,ENE,70,11.5,11.5,67,0.00,SCT,,0.00,237.0,WeatherDisplay:10.37,2013-09-27 13:25:00,
2013-09-27 14:30:00,62.3,51.6,29.99,East,81,3.5,3.5,68,0.00,SCT,,0.00,243.0,WeatherDisplay:10.37,2013-09-27 13:30:00,
2013-09-27 14:35:00,62.5,52.2,29.99,East,85,4.6,4.6,69,0.00,SCT,,0.00,269.0,WeatherDisplay:10.37,2013-09-27 13:35:00,
2013-09-27 14:40:00,62.5,51.8,29.99,East,89,3.5,3.5,68,0.00,SCT,,0.00,350.0,WeatherDisplay:10.37,2013-09-27 13:40:00,
2013-09-27 14:45:00,62.9,52.6,29.99,ENE,75,5.8,5.8,69,0.00,FEW,,0.00,448.0,WeatherDisplay:10.37,2013-09-27 13:45:00,
2013-09-27 14:50:00,63.1,51.6,29.99,ENE,73,8.1,8.1,66,0.00,CLR,,0.00,380.0,WeatherDisplay:10.37,2013-09-27 13:50:00,
2013-09-27 14:55:00,63.3,51.7,29.99,East,84,5.8,5.8,66,0.00,CLR,,0.00,446.0,WeatherDisplay:10.37,2013-09-27 13:55:00,
2013-09-27 15:00:00,63.6,51.6,29.99,East,99,10.4,10.4,65,0.00,CLR,,0.00,487.0,WeatherDisplay:10.37,2013-09-27 14:00:00,
2013-09-27 15:05:00,63.5,51.1,29.99,East,92,10.4,10.4,64,0.00,CLR,,0.00,418.0,WeatherDisplay:10.37,2013-09-27 14:05:00,
2013-09-27 15:10:00,63.5,51.1,29.98,ESE,104,5.8,5.8,64,0.00,CLR,,0.00,374.0,WeatherDisplay:10.37,2013-09-27 14:10:00,
2013-09-27 15:15:00,63.5,51.1,29.98,East,84,6.9,6.9,64,0.00,CLR,,0.00,578.0,WeatherDisplay:10.37,2013-09-27 14:15:00,
2013-09-27 15:20:00,63.8,51.4,29.98,ENE,72,10.4,10.4,64,0.00,CLR,,0.00,214.0,WeatherDisplay:10.37,2013-09-27 14:20:00,
2013-09-27 15:25:00,63.5,50.7,29.98,NE,34,11.5,11.5,63,0.00,FEW,,0.00,199.0,WeatherDisplay:10.37,2013-09-27 14:25:00,
2013-09-27 15:30:00,63.1,50.7,29.98,ENE,78,11.5,11.5,64,0.00,SCT,,0.00,246.0,WeatherDisplay:10.37,2013-09-27 14:30:00,
2013-09-27 15:35:00,63.2,51.6,29.98,ENE,71,3.5,3.5,66,0.00,SCT,,0.00,230.0,WeatherDisplay:10.37,2013-09-27 14:35:00,
2013-09-27 15:40:00,63.0,51.0,29.98,East,97,10.4,10.4,65,0.00,FEW,,0.00,237.0,WeatherDisplay:10.37,2013-09-27 14:40:00,
2013-09-27 15:45:00,62.9,51.0,29.97,ESE,107,11.5,11.5,65,0.00,CLR,,0.00,369.0,WeatherDisplay:10.37,2013-09-27 14:45:00,
2013-09-27 15:50:00,62.7,50.8,29.97,East,91,6.9,6.9,65,0.00,CLR,,0.00,225.0,WeatherDisplay:10.37,2013-09-27 14:50:00,
2013-09-27 15:55:00,62.8,51.7,29.97,East,98,3.5,3.5,67,0.00,CLR,,0.00,192.0,WeatherDisplay:10.37,2013-09-27 14:55:00,
2013-09-27 16:00:00,62.8,51.7,29.97,ENE,71,10.4,10.4,67,0.00,FEW,,0.00,193.0,WeatherDisplay:10.37,2013-09-27 15:00:00,
2013-09-27 16:05:00,62.6,51.5,29.97,East,84,6.9,6.9,67,0.00,FEW,,0.00,195.0,WeatherDisplay:10.37,2013-09-27 15:05:00,
2013-09-27 16:10:00,62.4,51.3,29.97,ENE,71,6.9,6.9,67,0.00,FEW,,0.00,178.0,WeatherDisplay:10.37,2013-09-27 15:10:00,
2013-09-27 16:15:00,62.2,51.1,29.96,ENE,57,11.5,11.5,67,0.00,FEW,,0.00,158.0,WeatherDisplay:10.37,2013-09-27 15:15:00,
2013-09-27 16:20:00,61.9,50.8,29.96,SE,138,5.8,5.8,67,0.00,FEW,,0.00,139.0,WeatherDisplay:10.37,2013-09-27 15:20:00,
2013-09-27 16:25:00,61.7,50.6,29.96,ESE,105,8.1,8.1,67,0.00,SCT,,0.00,128.0,WeatherDisplay:10.37,2013-09-27 15:25:00,
2013-09-27 16:30:00,61.6,51.3,29.96,East,98,3.5,3.5,69,0.00,SCT,,0.00,120.0,WeatherDisplay:10.37,2013-09-27 15:30:00,
2013-09-27 16:35:00,61.5,51.2,29.96,East,86,3.5,3.5,69,0.00,SCT,,0.00,109.0,WeatherDisplay:10.37,2013-09-27 15:35:00,
2013-09-27 16:40:00,61.3,50.6,29.96,East,91,4.6,4.6,68,0.00,SCT,,0.00,100.0,WeatherDisplay:10.37,2013-09-27 15:40:00,
2013-09-27 16:45:00,61.2,50.6,29.96,East,96,9.0,9.0,68,0.00,SCT,,0.00,91.0,WeatherDisplay:10.37,2013-09-27 15:45:00,
2013-09-27 16:50:00,61.0,50.8,29.96,East,88,4.0,4.0,69,0.00,SCT,,0.00,83.0,WeatherDisplay:10.37,2013-09-27 15:50:00,
2013-09-27 16:55:00,60.9,50.7,29.96,ENE,72,5.8,5.8,69,0.00,SCT,,0.00,77.0,WeatherDisplay:10.37,2013-09-27 15:55:00,
2013-09-27 17:00:00,60.7,50.5,29.96,East,90,11.5,11.5,69,0.00,SCT,,0.00,76.0,WeatherDisplay:10.37,2013-09-27 16:00:00,
2013-09-27 17:05:00,60.6,50.8,29.95,East,90,4.6,4.6,70,0.00,SCT,,0.00,74.0,WeatherDisplay:10.37,2013-09-27 16:05:00,
2013-09-27 17:10:00,60.5,50.7,29.95,East,98,4.6,4.6,70,0.00,FEW,,0.00,67.0,WeatherDisplay:10.37,2013-09-27 16:10:00,
2013-09-27 17:15:00,60.3,50.5,29.96,East,80,4.6,4.6,70,0.00,FEW,,0.00,63.0,WeatherDisplay:10.37,2013-09-27 16:15:00,
2013-09-27 17:20:00,60.2,50.8,29.95,East,79,4.6,4.6,71,0.00,FEW,,0.00,62.0,WeatherDisplay:10.37,2013-09-27 16:20:00,
2013-09-27 17:25:00,60.2,51.1,29.96,East,80,4.6,4.6,72,0.00,CLR,,0.00,60.0,WeatherDisplay:10.37,2013-09-27 16:25:00,
2013-09-27 17:30:00,60.0,50.9,29.96,East,80,3.5,3.5,72,0.00,CLR,,0.00,54.0,WeatherDisplay:10.37,2013-09-27 16:30:00,
2013-09-27 17:35:00,59.9,50.8,29.96,East,80,3.5,3.5,72,0.00,CLR,,0.00,49.0,WeatherDisplay:10.37,2013-09-27 16:35:00,
2013-09-27 17:40:00,59.8,51.1,29.96,East,82,3.5,3.5,73,0.00,CLR,,0.00,47.0,WeatherDisplay:10.37,2013-09-27 16:40:00,
2013-09-27 17:45:00,59.7,51.0,29.95,East,84,5.0,5.0,73,0.00,CLR,,0.00,44.0,WeatherDisplay:10.37,2013-09-27 16:45:00,
2013-09-27 17:50:00,59.5,50.8,29.95,East,84,4.6,4.6,73,0.00,CLR,,0.00,42.0,WeatherDisplay:10.37,2013-09-27 16:50:00,
2013-09-27 17:55:00,59.3,50.6,29.95,East,96,11.5,11.5,73,0.00,CLR,,0.00,37.0,WeatherDisplay:10.37,2013-09-27 16:55:00,
2013-09-27 18:00:00,59.1,50.8,29.95,ENE,75,6.0,6.0,74,0.00,OVC,,0.00,30.0,WeatherDisplay:10.37,2013-09-27 17:00:00,
2013-09-27 18:05:00,59.0,50.7,29.95,East,79,3.5,0.0,74,0.00,OVC,,0.00,23.0,WeatherDisplay:10.37,2013-09-27 17:05:00,
2013-09-27 18:10:00,58.9,50.6,29.96,ENE,75,7.0,7.0,74,0.00,OVC,,0.00,19.0,WeatherDisplay:10.37,2013-09-27 17:10:00,
2013-09-27 18:15:00,58.7,50.8,29.96,East,99,4.6,4.6,75,0.00,OVC,,0.00,18.0,WeatherDisplay:10.37,2013-09-27 17:15:00,
2013-09-27 18:20:00,58.5,50.6,29.96,East,88,6.9,6.9,75,0.00,OVC,,0.00,16.0,WeatherDisplay:10.37,2013-09-27 17:20:00,
2013-09-27 18:25:00,58.4,50.5,29.96,East,91,6.9,6.9,75,0.00,OVC,,0.00,16.0,WeatherDisplay:10.37,2013-09-27 17:25:00,
2013-09-27 18:26:00,58.3,50.4,29.96,ESE,119,6.9,6.9,75,0.00,OVC,,0.00,16.0,WeatherDisplay:10.37,2013-09-27 17:26:00,
2013-09-27 18:31:00,58.2,50.7,29.97,East,98,4.0,4.0,76,0.00,OVC,,0.00,12.0,WeatherDisplay:10.37,2013-09-27 17:31:00,
2013-09-27 18:36:00,58.0,50.5,29.96,East,95,3.5,3.5,76,0.00,OVC,,0.00,11.0,WeatherDisplay:10.37,2013-09-27 17:36:00,
2013-09-27 18:41:00,57.8,50.6,29.97,SE,128,10.0,10.0,77,0.00,OVC,,0.00,5.0,WeatherDisplay:10.37,2013-09-27 17:41:00,
2013-09-27 18:46:00,57.7,50.5,29.96,East,92,6.9,6.9,77,0.00,OVC,,0.00,0.0,WeatherDisplay:10.37,2013-09-27 17:46:00,
2013-09-27 18:51:00,57.4,50.6,29.96,ENE,75,10.4,10.4,78,0.00,OVC,,0.00,0.0,WeatherDisplay:10.37,2013-09-27 17:51:00,
2013-09-27 18:56:00,57.3,50.5,29.97,East,88,6.0,6.0,78,0.00,OVC,,0.00,0.0,WeatherDisplay:10.37,2013-09-27 17:56:00,
2013-09-27 19:01:00,57.1,50.6,29.97,ENE,73,8.1,8.1,79,0.00,CLR,,0.00,0.0,WeatherDisplay:10.37,2013-09-27 18:01:00,
2013-09-27 19:06:00,56.9,50.5,29.97,East,94,9.2,9.2,79,0.00,CLR,,0.00,0.0,WeatherDisplay:10.37,2013-09-27 18:06:00,
2013-09-27 19:11:00,56.8,50.4,29.97,East,96,5.8,5.8,79,0.00,CLR,,0.00,0.0,WeatherDisplay:10.37,2013-09-27 18:11:00,
2013-09-27 19:16:00,56.7,50.6,29.97,ENE,78,9.2,9.2,80,0.00,CLR,,0.00,0.0,WeatherDisplay:10.37,2013-09-27 18:16:00,
2013-09-27 19:21:00,56.6,50.5,29.97,East,84,6.9,6.9,80,0.00,CLR,,0.00,0.0,WeatherDisplay:10.37,2013-09-27 18:21:00,
2013-09-27 19:26:00,56.4,50.3,29.97,ESE,112,4.6,4.6,80,0.00,CLR,,0.00,0.0,WeatherDisplay:10.37,2013-09-27 18:26:00,
2013-09-27 19:31:00,56.3,50.5,29.97,East,86,3.5,3.5,81,0.00,CLR,,0.00,0.0,WeatherDisplay:10.37,2013-09-27 18:31:00,
2013-09-27 19:36:00,56.2,50.4,29.97,East,86,3.5,3.5,81,0.00,CLR,,0.00,0.0,WeatherDisplay:10.37,2013-09-27 18:36:00,
2013-09-27 19:41:00,56.0,50.3,29.97,ESE,103,4.6,4.6,81,0.00,CLR,,0.00,0.0,WeatherDisplay:10.37,2013-09-27 18:41:00,
2013-09-27 19:46:00,55.9,50.2,29.97,ESE,106,4.6,4.6,81,0.00,CLR,,0.00,0.0,WeatherDisplay:10.37,2013-09-27 18:46:00,
2013-09-27 19:51:00,55.8,50.4,29.96,East,94,5.8,5.8,82,0.00,CLR,,0.00,0.0,WeatherDisplay:10.37,2013-09-27 18:51:00,
2013-09-27 19:56:00,55.6,50.2,29.96,East,94,3.5,3.5,82,0.00,CLR,,0.00,0.0,WeatherDisplay:10.37,2013-09-27 18:56:00,
2013-09-27 20:01:00,55.5,50.1,29.97,East,82,6.9,6.9,82,0.00,CLR,,0.00,0.0,WeatherDisplay:10.37,2013-09-27 19:01:00,
2013-09-27 20:06:00,55.4,50.3,29.96,ESE,106,4.6,4.6,83,0.00,CLR,,0.00,0.0,WeatherDisplay:10.37,2013-09-27 19:06:00,
2013-09-27 20:11:00,55.3,50.2,29.96,East,93,9.2,9.2,83,0.00,CLR,,0.00,0.0,WeatherDisplay:10.37,2013-09-27 19:11:00,
2013-09-27 20:16:00,55.2,50.1,29.96,ENE,74,6.0,6.0,83,0.00,CLR,,0.00,0.0,WeatherDisplay:10.37,2013-09-27 19:16:00,
2013-09-27 20:21:00,55.1,50.4,29.96,East,83,5.8,5.8,84,0.00,CLR,,0.00,0.0,WeatherDisplay:10.37,2013-09-27 19:21:00,
2013-09-27 20:26:00,55.0,50.3,29.96,ENE,67,5.8,5.8,84,0.00,CLR,,0.00,0.0,WeatherDisplay:10.37,2013-09-27 19:26:00,
2013-09-27 20:31:00,54.9,50.2,29.96,ENE,78,5.8,5.8,84,0.00,CLR,,0.00,0.0,WeatherDisplay:10.37,2013-09-27 19:31:00,
2013-09-27 20:36:00,54.9,50.2,29.96,ESE,105,6.9,6.9,84,0.00,CLR,,0.00,0.0,WeatherDisplay:10.37,2013-09-27 19:36:00,
2013-09-27 20:41:00,54.8,50.1,29.96,ESE,107,3.5,3.5,84,0.00,CLR,,0.00,0.0,WeatherDisplay:10.37,2013-09-27 19:41:00,
2013-09-27 20:46:00,54.7,50.0,29.96,ENE,76,3.5,3.5,84,0.00,CLR,,0.00,0.0,WeatherDisplay:10.37,2013-09-27 19:46:00,
2013-09-27 20:51:00,54.6,49.9,29.96,ENE,73,4.6,4.6,84,0.00,CLR,,0.00,0.0,WeatherDisplay:10.37,2013-09-27 19:51:00,
2013-09-27 20:56:00,54.5,49.8,29.96,East,81,9.2,9.2,84,0.00,CLR,,0.00,0.0,WeatherDisplay:10.37,2013-09-27 19:56:00,
2013-09-27 21:01:00,54.5,50.1,29.96,East,87,9.0,9.0,85,0.00,CLR,,0.00,0.0,WeatherDisplay:10.37,2013-09-27 20:01:00,
2013-09-27 21:06:00,54.4,50.0,29.95,East,88,4.6,4.6,85,0.00,CLR,,0.00,0.0,WeatherDisplay:10.37,2013-09-27 20:06:00,
2013-09-27 21:11:00,54.4,50.0,29.95,East,79,4.6,4.6,85,0.00,CLR,,0.00,0.0,WeatherDisplay:10.37,2013-09-27 20:11:00,
2013-09-27 21:16:00,54.3,49.9,29.95,ENE,76,3.5,3.5,85,0.00,CLR,,0.00,0.0,WeatherDisplay:10.37,2013-09-27 20:16:00,
2013-09-27 21:21:00,54.3,50.2,29.95,East,80,5.8,5.8,86,0.00,CLR,,0.00,0.0,WeatherDisplay:10.37,2013-09-27 20:21:00,
2013-09-27 21:26:00,54.2,50.1,29.95,East,80,5.8,5.8,86,0.00,CLR,,0.00,0.0,WeatherDisplay:10.37,2013-09-27 20:26:00,
2013-09-27 21:31:00,54.2,50.1,29.95,East,82,4.0,4.0,86,0.00,CLR,,0.00,0.0,WeatherDisplay:10.37,2013-09-27 20:31:00,
2013-09-27 21:36:00,54.2,50.1,29.95,East,84,3.5,3.5,86,0.00,CLR,,0.00,0.0,WeatherDisplay:10.37,2013-09-27 20:36:00,
2013-09-27 21:42:00,54.1,50.0,29.95,ENE,74,4.6,4.6,86,0.00,CLR,,0.00,0.0,WeatherDisplay:10.37,2013-09-27 20:42:00,
2013-09-27 21:46:00,54.1,50.3,29.95,ENE,74,4.6,4.6,87,0.00,CLR,,0.00,0.0,WeatherDisplay:10.37,2013-09-27 20:46:00,
2013-09-27 21:51:00,54.1,50.3,29.95,ENE,76,5.8,5.8,87,0.00,CLR,,0.00,0.0,WeatherDisplay:10.37,2013-09-27 20:51:00,
2013-09-27 21:56:00,54.1,50.3,29.95,ENE,78,5.0,5.0,87,0.00,CLR,,0.00,0.0,WeatherDisplay:10.37,2013-09-27 20:56:00,
2013-09-27 22:01:00,54.0,50.2,29.95,East,96,5.0,5.0,87,0.00,CLR,,0.00,0.0,WeatherDisplay:10.37,2013-09-27 21:01:00,
2013-09-27 22:06:00,54.1,50.3,29.95,East,90,3.5,3.5,87,0.00,CLR,,0.00,0.0,WeatherDisplay:10.37,2013-09-27 21:06:00,
2013-09-27 22:11:00,54.0,50.2,29.95,East,92,5.8,5.8,87,0.00,CLR,,0.00,0.0,WeatherDisplay:10.37,2013-09-27 21:11:00,
2013-09-27 22:16:00,54.0,50.2,29.95,East,91,4.0,4.0,87,0.00,CLR,,0.00,0.0,WeatherDisplay:10.37,2013-09-27 21:16:00,
2013-09-27 22:21:00,54.0,50.5,29.95,East,91,2.3,2.3,88,0.00,CLR,,0.00,0.0,WeatherDisplay:10.37,2013-09-27 21:21:00,
2013-09-27 22:26:00,53.9,50.4,29.94,East,90,4.0,4.0,88,0.00,CLR,,0.00,0.0,WeatherDisplay:10.37,2013-09-27 21:26:00,
2013-09-27 22:31:00,53.9,50.4,29.94,East,90,3.0,3.0,88,0.00,CLR,,0.00,0.0,WeatherDisplay:10.37,2013-09-27 21:31:00,
2013-09-27 22:36:00,53.9,50.4,29.94,East,90,4.6,4.6,88,0.00,CLR,,0.00,0.0,WeatherDisplay:10.37,2013-09-27 21:36:00,
2013-09-27 22:41:00,53.9,50.7,29.94,East,88,4.6,4.6,89,0.00,CLR,,0.00,0.0,WeatherDisplay:10.37,2013-09-27 21:41:00,
2013-09-27 22:46:00,53.9,50.7,29.94,East,88,5.8,5.8,89,0.00,CLR,,0.00,0.0,WeatherDisplay:10.37,2013-09-27 21:46:00,
2013-09-27 22:51:00,53.9,50.7,29.94,East,88,3.5,3.5,89,0.00,CLR,,0.00,0.0,WeatherDisplay:10.37,2013-09-27 21:51:00,
2013-09-27 22:56:00,53.9,50.7,29.94,East,88,3.5,3.5,89,0.00,CLR,,0.00,0.0,WeatherDisplay:10.37,2013-09-27 21:56:00,
2013-09-27 23:01:00,53.8,50.6,29.94,East,88,3.5,3.5,89,0.00,CLR,,0.00,0.0,WeatherDisplay:10.37,2013-09-27 22:01:00,
2013-09-27 23:06:00,53.7,50.5,29.94,East,89,3.5,3.5,89,0.00,CLR,,0.00,0.0,WeatherDisplay:10.37,2013-09-27 22:06:00,
2013-09-27 23:11:00,53.7,50.5,29.94,East,89,3.5,3.5,89,0.00,CLR,,0.00,0.0,WeatherDisplay:10.37,2013-09-27 22:11:00,
2013-09-27 23:16:00,53.6,50.4,29.94,East,89,0.0,0.0,89,0.00,CLR,,0.00,0.0,WeatherDisplay:10.37,2013-09-27 22:16:00,
2013-09-27 23:21:00,53.6,50.4,29.94,East,88,1.2,0.0,89,0.00,CLR,,0.00,0.0,WeatherDisplay:10.37,2013-09-27 22:21:00,
2013-09-27 23:27:00,53.5,50.3,29.94,East,89,0.0,0.0,89,0.00,CLR,,0.00,0.0,WeatherDisplay:10.37,2013-09-27 22:27:00,
2013-09-27 23:32:00,53.4,50.5,29.94,East,89,3.5,3.5,90,0.00,CLR,,0.00,0.0,WeatherDisplay:10.37,2013-09-27 22:32:00,
2013-09-27 23:37:00,53.3,50.4,29.94,East,84,4.6,4.6,90,0.00,CLR,,0.00,0.0,WeatherDisplay:10.37,2013-09-27 22:37:00,
2013-09-27 23:42:00,53.2,50.3,29.94,East,84,2.3,2.3,90,0.00,CLR,,0.00,0.0,WeatherDisplay:10.37,2013-09-27 22:42:00,
2013-09-27 23:47:00,53.2,50.3,29.94,East,84,3.5,3.5,90,0.00,CLR,,0.00,0.0,WeatherDisplay:10.37,2013-09-27 22:47:00,
2013-09-27 23:52:00,53.2,50.3,29.94,East,84,1.2,1.2,90,0.00,CLR,,0.00,0.0,WeatherDisplay:10.37,2013-09-27 22:52:00,
2013-09-27 23:57:00,53.2,50.6,29.94,East,84,2.3,2.3,91,0.00,CLR,,0.00,0.0,WeatherDisplay:10.37,2013-09-27 22:57:00,